Time,TemperatureF,DewpointF,PressureIn,WindDirection,WindDirectionDegrees,WindSpeedMPH,WindSpeedGustMPH,Humidity,HourlyPrecipIn,Conditions,Clouds,dailyrainin,SoftwareType,DateUTC
2013-05-25 00:02:00,47.9,46.0,30.20,West,270,9.3,20.1,91,0.00,,,0.00,Rainwise IP-100,2013-05-25 07:02:00,
2013-05-25 00:07:00,47.8,46.0,30.20,West,270,11.9,20.1,91,0.00,,,0.00,Rainwise IP-100,2013-05-25 07:07:00,
2013-05-25 00:12:00,47.8,46.0,30.20,WNW,292,11.0,19.8,91,0.00,,,0.00,Rainwise IP-100,2013-05-25 07:12:00,
2013-05-25 00:17:00,47.7,45.0,30.19,West,270,10.5,20.3,91,0.00,,,0.00,Rainwise IP-100,2013-05-25 07:17:00,
2013-05-25 00:22:00,47.7,45.0,30.20,WNW,292,8.6,17.7,92,0.00,,,0.00,Rainwise IP-100,2013-05-25 07:22:00,
2013-05-25 00:27:00,47.6,45.0,30.20,WNW,292,3.5,17.0,92,0.00,,,0.00,Rainwise IP-100,2013-05-25 07:27:00,
2013-05-25 00:32:00,47.6,45.0,30.19,West,270,15.4,17.0,92,0.00,,,0.00,Rainwise IP-100,2013-05-25 07:32:00,
2013-05-25 00:37:00,47.6,45.0,30.20,WNW,292,7.5,16.3,92,0.00,,,0.00,Rainwise IP-100,2013-05-25 07:37:00,
2013-05-25 00:42:00,47.6,45.0,30.19,WNW,292,14.0,18.0,92,0.00,,,0.00,Rainwise IP-100,2013-05-25 07:42:00,
2013-05-25 00:47:00,47.6,45.0,30.20,West,270,9.6,18.4,92,0.00,,,0.00,Rainwise IP-100,2013-05-25 07:47:00,
2013-05-25 00:52:00,47.5,45.0,30.20,WNW,292,12.8,19.6,92,0.00,,,0.00,Rainwise IP-100,2013-05-25 07:52:00,
2013-05-25 00:57:00,47.5,45.0,30.19,West,270,11.4,18.7,92,0.00,,,0.00,Rainwise IP-100,2013-05-25 07:57:00,
2013-05-25 01:02:00,47.5,45.0,30.19,WSW,247,11.9,17.3,92,0.00,,,0.00,Rainwise IP-100,2013-05-25 08:02:00,
2013-05-25 01:07:00,47.5,45.0,30.20,NNW,337,6.1,15.6,92,0.00,,,0.00,Rainwise IP-100,2013-05-25 08:07:00,
2013-05-25 01:12:00,47.5,45.0,30.20,WNW,292,10.0,15.9,92,0.00,,,0.00,Rainwise IP-100,2013-05-25 08:12:00,
2013-05-25 01:17:00,47.5,45.0,30.20,West,270,8.2,16.8,92,0.00,,,0.00,Rainwise IP-100,2013-05-25 08:17:00,
2013-05-25 01:22:00,47.5,45.0,30.20,WNW,292,8.4,16.6,92,0.00,,,0.00,Rainwise IP-100,2013-05-25 08:22:00,
2013-05-25 01:27:00,47.5,45.0,30.20,West,270,10.0,15.9,92,0.00,,,0.00,Rainwise IP-100,2013-05-25 08:27:00,
2013-05-25 01:32:00,47.4,45.0,30.20,WNW,292,4.0,15.4,92,0.00,,,0.00,Rainwise IP-100,2013-05-25 08:32:00,
2013-05-25 01:37:00,47.4,45.0,30.20,West,270,6.1,17.0,92,0.00,,,0.00,Rainwise IP-100,2013-05-25 08:37:00,
2013-05-25 01:42:00,47.4,45.0,30.20,NW,315,7.9,17.5,92,0.00,,,0.00,Rainwise IP-100,2013-05-25 08:42:00,
2013-05-25 01:47:00,47.4,45.0,30.20,WNW,292,17.7,17.7,92,0.00,,,0.00,Rainwise IP-100,2013-05-25 08:47:00,
2013-05-25 01:52:00,47.3,45.0,30.20,WSW,247,9.6,17.7,92,0.00,,,0.00,Rainwise IP-100,2013-05-25 08:52:00,
2013-05-25 01:57:00,47.3,45.0,30.20,West,270,12.8,15.9,92,0.00,,,0.00,Rainwise IP-100,2013-05-25 08:57:00,
2013-05-25 02:02:00,47.3,45.0,30.20,WNW,292,12.8,14.7,92,0.00,,,0.00,Rainwise IP-100,2013-05-25 09:02:00,
2013-05-25 02:07:00,47.3,45.0,30.20,WNW,292,13.3,14.2,92,0.00,,,0.00,Rainwise IP-100,2013-05-25 09:07:00,
2013-05-25 02:12:00,47.3,45.0,30.20,West,270,5.4,14.7,92,0.00,,,0.00,Rainwise IP-100,2013-05-25 09:12:00,
2013-05-25 02:17:00,47.3,45.0,30.20,West,270,8.2,13.1,92,0.00,,,0.00,Rainwise IP-100,2013-05-25 09:17:00,
2013-05-25 02:22:00,47.3,45.0,30.20,WSW,247,6.5,14.0,92,0.00,,,0.00,Rainwise IP-100,2013-05-25 09:22:00,
2013-05-25 02:27:00,47.3,45.0,30.20,WNW,292,7.9,12.8,92,0.00,,,0.00,Rainwise IP-100,2013-05-25 09:27:00,
2013-05-25 02:32:00,47.3,46.0,30.20,NW,315,7.7,14.9,93,0.00,,,0.00,Rainwise IP-100,2013-05-25 09:32:00,
2013-05-25 02:37:00,47.2,45.0,30.20,WNW,292,2.3,14.0,93,0.00,,,0.00,Rainwise IP-100,2013-05-25 09:37:00,
2013-05-25 02:42:00,47.2,45.0,30.20,WNW,292,5.1,13.3,93,0.00,,,0.00,Rainwise IP-100,2013-05-25 09:42:00,
2013-05-25 02:47:00,47.2,45.0,30.20,WNW,292,7.0,11.4,93,0.00,,,0.00,Rainwise IP-100,2013-05-25 09:47:00,
2013-05-25 02:52:00,47.2,45.0,30.19,ENE,67,1.2,15.2,93,0.00,,,0.00,Rainwise IP-100,2013-05-25 09:52:00,
2013-05-25 02:57:00,47.2,45.0,30.19,WNW,292,6.8,12.6,93,0.00,,,0.00,Rainwise IP-100,2013-05-25 09:57:00,
2013-05-25 03:02:00,47.1,45.0,30.19,WSW,247,3.7,13.3,93,0.00,,,0.00,Rainwise IP-100,2013-05-25 10:02:00,
2013-05-25 03:07:00,47.1,45.0,30.19,WNW,292,7.5,12.8,93,0.00,,,0.00,Rainwise IP-100,2013-05-25 10:07:00,
2013-05-25 03:12:00,47.1,45.0,30.19,WNW,292,8.6,14.9,93,0.00,,,0.00,Rainwise IP-100,2013-05-25 10:12:00,
2013-05-25 03:17:00,47.1,45.0,30.20,West,270,4.0,14.9,94,0.00,,,0.00,Rainwise IP-100,2013-05-25 10:17:00,
2013-05-25 03:22:00,47.1,45.0,30.20,West,270,3.7,12.4,94,0.00,,,0.00,Rainwise IP-100,2013-05-25 10:22:00,
2013-05-25 03:27:00,47.1,45.0,30.19,WNW,292,5.4,10.7,94,0.00,,,0.00,Rainwise IP-100,2013-05-25 10:27:00,
2013-05-25 03:32:00,47.1,45.0,30.20,West,270,4.9,13.5,94,0.00,,,0.00,Rainwise IP-100,2013-05-25 10:32:00,
2013-05-25 03:37:00,47.0,45.0,30.20,WSW,247,9.8,13.1,94,0.00,,,0.00,Rainwise IP-100,2013-05-25 10:37:00,
2013-05-25 03:42:00,47.0,45.0,30.19,WNW,292,3.0,12.1,94,0.00,,,0.00,Rainwise IP-100,2013-05-25 10:42:00,
2013-05-25 03:47:00,47.0,45.0,30.19,WNW,292,4.2,9.8,94,0.00,,,0.00,Rainwise IP-100,2013-05-25 10:47:00,
2013-05-25 03:52:00,47.0,45.0,30.19,WNW,292,3.0,11.4,94,0.00,,,0.00,Rainwise IP-100,2013-05-25 10:52:00,
2013-05-25 03:57:00,47.0,45.0,30.20,SSW,202,1.9,10.7,94,0.00,,,0.00,Rainwise IP-100,2013-05-25 10:57:00,
2013-05-25 04:02:00,46.9,45.0,30.19,SSW,202,2.1,12.1,94,0.00,,,0.00,Rainwise IP-100,2013-05-25 11:02:00,
2013-05-25 04:07:00,46.9,45.0,30.19,WNW,292,1.6,12.1,95,0.00,,,0.00,Rainwise IP-100,2013-05-25 11:07:00,
2013-05-25 04:12:00,46.9,45.0,30.19,WNW,292,8.4,12.1,95,0.00,,,0.00,Rainwise IP-100,2013-05-25 11:12:00,
2013-05-25 04:17:00,46.9,45.0,30.19,WNW,292,5.4,10.3,95,0.00,,,0.00,Rainwise IP-100,2013-05-25 11:17:00,
2013-05-25 04:22:00,46.9,45.0,30.19,WSW,247,9.8,12.1,95,0.00,,,0.00,Rainwise IP-100,2013-05-25 11:22:00,
2013-05-25 04:27:00,47.0,45.0,30.19,NW,315,5.4,11.2,95,0.00,,,0.00,Rainwise IP-100,2013-05-25 11:27:00,
2013-05-25 04:32:00,47.1,45.0,30.19,WSW,247,4.9,14.0,95,0.00,,,0.00,Rainwise IP-100,2013-05-25 11:32:00,
2013-05-25 04:37:00,47.1,45.0,30.19,WNW,292,4.9,12.8,95,0.00,,,0.00,Rainwise IP-100,2013-05-25 11:37:00,
2013-05-25 04:42:00,47.1,45.0,30.19,West,270,6.3,10.0,95,0.00,,,0.00,Rainwise IP-100,2013-05-25 11:42:00,
2013-05-25 04:47:00,47.1,45.0,30.19,NNW,337,0.0,8.4,95,0.00,,,0.00,Rainwise IP-100,2013-05-25 11:47:00,
2013-05-25 04:52:00,47.0,45.0,30.19,WNW,292,4.7,10.3,95,0.00,,,0.00,Rainwise IP-100,2013-05-25 11:52:00,
2013-05-25 04:57:00,47.0,45.0,30.20,WNW,292,8.2,8.2,95,0.00,,,0.00,Rainwise IP-100,2013-05-25 11:57:00,
2013-05-25 05:02:00,47.0,45.0,30.19,NNW,337,0.0,10.0,95,0.00,,,0.00,Rainwise IP-100,2013-05-25 12:02:00,
2013-05-25 05:07:00,46.9,45.0,30.19,NW,315,1.4,10.0,95,0.00,,,0.00,Rainwise IP-100,2013-05-25 12:07:00,
2013-05-25 05:12:00,46.9,45.0,30.20,NW,315,1.2,10.3,95,0.00,,,0.00,Rainwise IP-100,2013-05-25 12:12:00,
2013-05-25 05:17:00,46.9,45.0,30.20,West,270,4.9,5.4,95,0.00,,,0.00,Rainwise IP-100,2013-05-25 12:17:00,
2013-05-25 05:22:00,46.9,45.0,30.19,WNW,292,7.0,8.4,95,0.00,,,0.00,Rainwise IP-100,2013-05-25 12:22:00,
2013-05-25 05:27:00,46.9,45.0,30.20,WSW,247,0.0,9.3,95,0.00,,,0.00,Rainwise IP-100,2013-05-25 12:27:00,
2013-05-25 05:32:00,46.9,45.0,30.20,SW,225,1.9,7.2,95,0.00,,,0.00,Rainwise IP-100,2013-05-25 12:32:00,
2013-05-25 05:37:00,46.9,45.0,30.20,SW,225,4.2,11.4,95,0.00,,,0.00,Rainwise IP-100,2013-05-25 12:37:00,
2013-05-25 05:42:00,46.9,45.0,30.20,SW,225,4.4,7.5,95,0.00,,,0.00,Rainwise IP-100,2013-05-25 12:42:00,
2013-05-25 05:47:00,46.9,45.0,30.20,West,270,0.0,9.8,95,0.00,,,0.00,Rainwise IP-100,2013-05-25 12:47:00,
2013-05-25 05:52:00,47.0,45.0,30.20,WSW,247,1.6,6.3,95,0.00,,,0.00,Rainwise IP-100,2013-05-25 12:52:00,
2013-05-25 05:57:00,46.9,45.0,30.20,SSE,157,0.0,11.2,95,0.00,,,0.00,Rainwise IP-100,2013-05-25 12:57:00,
2013-05-25 06:02:00,46.9,45.0,30.21,WSW,247,7.2,12.1,95,0.00,,,0.00,Rainwise IP-100,2013-05-25 13:02:00,
2013-05-25 06:07:00,47.0,45.0,30.20,WNW,292,2.1,7.5,95,0.00,,,0.00,Rainwise IP-100,2013-05-25 13:07:00,
2013-05-25 06:12:00,47.0,45.0,30.21,SSE,157,0.0,7.2,95,0.00,,,0.00,Rainwise IP-100,2013-05-25 13:12:00,
2013-05-25 06:17:00,47.1,45.0,30.21,WNW,292,3.3,9.8,95,0.00,,,0.00,Rainwise IP-100,2013-05-25 13:17:00,
2013-05-25 06:22:00,47.2,45.0,30.21,ESE,112,1.6,8.2,95,0.00,,,0.00,Rainwise IP-100,2013-05-25 13:22:00,
2013-05-25 06:27:00,47.3,46.0,30.21,WSW,247,2.3,9.6,95,0.00,,,0.00,Rainwise IP-100,2013-05-25 13:27:00,
2013-05-25 06:32:00,47.3,46.0,30.21,WNW,292,6.3,11.0,95,0.00,,,0.00,Rainwise IP-100,2013-05-25 13:32:00,
2013-05-25 06:37:00,47.3,46.0,30.21,WNW,292,3.0,7.2,95,0.00,,,0.00,Rainwise IP-100,2013-05-25 13:37:00,
2013-05-25 06:42:00,47.4,46.0,30.21,WNW,292,3.5,9.3,95,0.00,,,0.00,Rainwise IP-100,2013-05-25 13:42:00,
2013-05-25 06:47:00,47.5,46.0,30.21,NNW,337,0.0,11.0,95,0.00,,,0.00,Rainwise IP-100,2013-05-25 13:47:00,
2013-05-25 06:52:00,47.6,46.0,30.22,WSW,247,3.0,9.3,95,0.00,,,0.00,Rainwise IP-100,2013-05-25 13:52:00,
2013-05-25 06:57:00,47.7,46.0,30.21,NW,315,2.8,11.7,95,0.00,,,0.00,Rainwise IP-100,2013-05-25 13:57:00,
2013-05-25 07:02:00,47.8,47.0,30.21,WSW,247,1.4,10.0,94,0.00,,,0.00,Rainwise IP-100,2013-05-25 14:02:00,
2013-05-25 07:07:00,48.0,47.0,30.22,West,270,4.9,8.4,94,0.00,,,0.00,Rainwise IP-100,2013-05-25 14:07:00,
2013-05-25 07:12:00,48.1,47.0,30.22,WSW,247,3.3,11.0,93,0.00,,,0.00,Rainwise IP-100,2013-05-25 14:12:00,
2013-05-25 07:17:00,48.5,47.5,30.22,West,270,8.6,8.6,93,0.00,,,0.00,Rainwise IP-100,2013-05-25 14:17:00,
2013-05-25 07:22:00,48.8,47.0,30.22,SE,135,2.6,15.2,92,0.00,,,0.00,Rainwise IP-100,2013-05-25 14:22:00,
2013-05-25 07:27:00,49.0,47.0,30.22,West,270,4.0,9.6,92,0.00,,,0.00,Rainwise IP-100,2013-05-25 14:27:00,
2013-05-25 07:32:00,49.2,47.0,30.23,SSW,202,2.6,11.9,91,0.00,,,0.00,Rainwise IP-100,2013-05-25 14:32:00,
2013-05-25 07:37:00,49.4,47.0,30.23,WSW,247,4.2,13.8,91,0.00,,,0.00,Rainwise IP-100,2013-05-25 14:37:00,
2013-05-25 07:42:00,49.7,47.0,30.22,WNW,292,9.3,10.5,90,0.00,,,0.00,Rainwise IP-100,2013-05-25 14:42:00,
2013-05-25 07:47:00,49.9,47.0,30.23,SW,225,0.0,14.2,90,0.00,,,0.00,Rainwise IP-100,2013-05-25 14:47:00,
2013-05-25 07:52:00,50.1,47.0,30.23,NNW,337,1.4,9.1,89,0.00,,,0.00,Rainwise IP-100,2013-05-25 14:52:00,
2013-05-25 07:57:00,50.2,47.0,30.23,West,270,8.6,15.2,88,0.00,,,0.00,Rainwise IP-100,2013-05-25 14:57:00,
2013-05-25 08:02:00,50.3,47.5,30.22,NNE,22,1.4,14.0,88,0.00,,,0.00,Rainwise IP-100,2013-05-25 15:02:00,
2013-05-25 08:07:00,50.6,47.5,30.24,NNW,337,3.7,14.0,88,0.00,,,0.00,Rainwise IP-100,2013-05-25 15:07:00,
2013-05-25 08:12:00,50.8,47.5,30.23,WNW,292,5.4,12.4,87,0.00,,,0.00,Rainwise IP-100,2013-05-25 15:12:00,
2013-05-25 08:17:00,50.9,47.5,30.23,SSW,202,2.1,12.4,87,0.00,,,0.00,Rainwise IP-100,2013-05-25 15:17:00,
2013-05-25 08:22:00,50.9,47.5,30.23,WSW,247,2.3,11.7,86,0.00,,,0.00,Rainwise IP-100,2013-05-25 15:22:00,
2013-05-25 08:27:00,51.2,47.0,30.24,West,270,8.4,8.4,85,0.00,,,0.00,Rainwise IP-100,2013-05-25 15:27:00,
2013-05-25 08:32:00,51.3,47.0,30.24,NNW,337,4.9,12.4,85,0.00,,,0.00,Rainwise IP-100,2013-05-25 15:32:00,
2013-05-25 08:37:00,51.1,47.0,30.24,West,270,5.8,14.0,85,0.00,,,0.00,Rainwise IP-100,2013-05-25 15:37:00,
2013-05-25 08:42:00,51.1,47.0,30.24,WNW,292,3.3,13.5,85,0.00,,,0.00,Rainwise IP-100,2013-05-25 15:42:00,
2013-05-25 08:47:00,51.0,47.0,30.24,SSE,157,1.2,11.2,85,0.00,,,0.00,Rainwise IP-100,2013-05-25 15:47:00,
2013-05-25 08:52:00,50.9,47.0,30.24,NW,315,1.9,11.7,85,0.00,,,0.00,Rainwise IP-100,2013-05-25 15:52:00,
2013-05-25 08:57:00,51.2,47.0,30.24,WSW,247,6.1,11.9,85,0.00,,,0.00,Rainwise IP-100,2013-05-25 15:57:00,
2013-05-25 09:02:00,51.5,47.5,30.24,SW,225,2.6,11.4,85,0.00,,,0.00,Rainwise IP-100,2013-05-25 16:02:00,
2013-05-25 09:07:00,51.8,47.5,30.25,WNW,292,3.0,11.0,84,0.00,,,0.00,Rainwise IP-100,2013-05-25 16:07:00,
2013-05-25 09:12:00,52.4,47.0,30.24,SE,135,3.0,8.9,83,0.00,,,0.00,Rainwise IP-100,2013-05-25 16:12:00,
2013-05-25 09:17:00,52.7,47.5,30.25,SW,225,1.4,12.6,82,0.00,,,0.00,Rainwise IP-100,2013-05-25 16:17:00,
2013-05-25 09:22:00,52.7,47.0,30.24,ESE,112,3.5,10.7,81,0.00,,,0.00,Rainwise IP-100,2013-05-25 16:22:00,
2013-05-25 09:27:00,53.0,47.0,30.24,WSW,247,4.0,11.9,80,0.00,,,0.00,Rainwise IP-100,2013-05-25 16:27:00,
2013-05-25 09:32:00,53.5,47.0,30.24,WSW,247,2.3,7.9,79,0.00,,,0.00,Rainwise IP-100,2013-05-25 16:32:00,
2013-05-25 09:37:00,53.7,47.0,30.24,WSW,247,5.6,12.1,78,0.00,,,0.00,Rainwise IP-100,2013-05-25 16:37:00,
2013-05-25 09:42:00,53.7,47.0,30.24,WSW,247,9.8,12.8,78,0.00,,,0.00,Rainwise IP-100,2013-05-25 16:42:00,
2013-05-25 09:47:00,53.9,47.5,30.24,West,270,1.2,10.7,78,0.00,,,0.00,Rainwise IP-100,2013-05-25 16:47:00,
2013-05-25 09:52:00,54.1,47.0,30.24,SW,225,3.7,10.3,77,0.00,,,0.00,Rainwise IP-100,2013-05-25 16:52:00,
2013-05-25 09:57:00,54.1,47.0,30.24,WSW,247,2.8,10.7,76,0.00,,,0.00,Rainwise IP-100,2013-05-25 16:57:00,
2013-05-25 10:02:00,54.6,47.0,30.24,WNW,292,2.6,11.0,75,0.00,,,0.00,Rainwise IP-100,2013-05-25 17:02:00,
2013-05-25 10:07:00,55.2,47.5,30.24,SW,225,7.2,11.4,74,0.00,,,0.00,Rainwise IP-100,2013-05-25 17:07:00,
2013-05-25 10:12:00,55.4,47.0,30.24,WSW,247,3.5,12.1,73,0.00,,,0.00,Rainwise IP-100,2013-05-25 17:12:00,
2013-05-25 10:17:00,55.5,47.5,30.25,SSE,157,11.2,12.8,73,0.00,,,0.00,Rainwise IP-100,2013-05-25 17:17:00,
2013-05-25 10:22:00,55.3,47.0,30.25,WSW,247,2.8,12.6,73,0.00,,,0.00,Rainwise IP-100,2013-05-25 17:22:00,
2013-05-25 10:27:00,55.2,47.0,30.25,NNW,337,1.2,9.8,73,0.00,,,0.00,Rainwise IP-100,2013-05-25 17:27:00,
2013-05-25 10:32:00,55.3,47.0,30.25,NNE,22,1.4,11.4,73,0.00,,,0.00,Rainwise IP-100,2013-05-25 17:32:00,
2013-05-25 10:37:00,55.6,47.5,30.25,SSE,157,4.0,11.2,73,0.00,,,0.00,Rainwise IP-100,2013-05-25 17:37:00,
2013-05-25 10:42:00,56.1,47.0,30.25,SSW,202,2.6,8.2,72,0.00,,,0.00,Rainwise IP-100,2013-05-25 17:42:00,
2013-05-25 10:47:00,56.2,47.0,30.25,WNW,292,6.5,10.3,71,0.00,,,0.00,Rainwise IP-100,2013-05-25 17:47:00,
2013-05-25 10:52:00,56.2,47.0,30.25,West,270,4.4,14.5,71,0.00,,,0.00,Rainwise IP-100,2013-05-25 17:52:00,
2013-05-25 10:57:00,56.1,47.0,30.25,NW,315,4.9,12.4,71,0.00,,,0.00,Rainwise IP-100,2013-05-25 17:57:00,
2013-05-25 11:02:00,56.1,47.0,30.25,WSW,247,4.0,11.9,71,0.00,,,0.00,Rainwise IP-100,2013-05-25 18:02:00,
2013-05-25 11:07:00,55.8,47.0,30.25,WNW,292,7.5,14.0,71,0.00,,,0.00,Rainwise IP-100,2013-05-25 18:07:00,
2013-05-25 11:12:00,55.9,47.0,30.25,SSE,157,1.9,12.4,72,0.00,,,0.00,Rainwise IP-100,2013-05-25 18:12:00,
2013-05-25 11:17:00,56.5,47.5,30.26,WNW,292,2.6,12.1,72,0.00,,,0.00,Rainwise IP-100,2013-05-25 18:17:00,
2013-05-25 11:22:00,56.8,47.5,30.26,SW,225,9.8,14.9,71,0.00,,,0.00,Rainwise IP-100,2013-05-25 18:22:00,
2013-05-25 11:27:00,56.7,47.5,30.27,NW,315,2.8,13.8,71,0.00,,,0.00,Rainwise IP-100,2013-05-25 18:27:00,
2013-05-25 11:32:00,56.6,47.5,30.26,West,270,5.1,9.3,72,0.00,,,0.00,Rainwise IP-100,2013-05-25 18:32:00,
2013-05-25 11:37:00,56.4,47.5,30.26,ESE,112,5.1,14.7,72,0.00,,,0.00,Rainwise IP-100,2013-05-25 18:37:00,
2013-05-25 11:42:00,56.3,47.5,30.26,SSW,202,11.2,17.5,72,0.00,,,0.00,Rainwise IP-100,2013-05-25 18:42:00,
2013-05-25 11:47:00,56.4,47.5,30.27,SSE,157,4.2,16.6,72,0.00,,,0.00,Rainwise IP-100,2013-05-25 18:47:00,
2013-05-25 11:52:00,56.7,47.5,30.27,SE,135,8.2,13.8,72,0.00,,,0.00,Rainwise IP-100,2013-05-25 18:52:00,
2013-05-25 11:57:00,56.8,48.0,30.27,WSW,247,15.4,16.1,72,0.00,,,0.00,Rainwise IP-100,2013-05-25 18:57:00,
2013-05-25 12:02:00,56.6,47.5,30.27,NW,315,3.5,17.5,72,0.00,,,0.00,Rainwise IP-100,2013-05-25 19:02:00,
2013-05-25 12:07:00,56.1,47.0,30.26,WSW,247,5.4,15.4,72,0.00,,,0.00,Rainwise IP-100,2013-05-25 19:07:00,
2013-05-25 12:12:00,55.6,47.5,30.26,WNW,292,13.1,17.7,73,0.00,,,0.00,Rainwise IP-100,2013-05-25 19:12:00,
2013-05-25 12:17:00,55.6,47.5,30.27,WNW,292,14.7,17.0,73,0.00,,,0.00,Rainwise IP-100,2013-05-25 19:17:00,
2013-05-25 12:22:00,55.8,47.5,30.27,WNW,292,11.9,17.7,73,0.00,,,0.00,Rainwise IP-100,2013-05-25 19:22:00,
2013-05-25 12:27:00,56.1,47.5,30.27,WNW,292,6.5,17.3,73,0.00,,,0.00,Rainwise IP-100,2013-05-25 19:27:00,
2013-05-25 12:32:00,56.2,47.0,30.27,WNW,292,3.7,19.6,72,0.00,,,0.00,Rainwise IP-100,2013-05-25 19:32:00,
2013-05-25 12:37:00,56.0,47.0,30.27,WNW,292,10.5,19.1,72,0.00,,,0.00,Rainwise IP-100,2013-05-25 19:37:00,
2013-05-25 12:42:00,55.6,47.5,30.27,WNW,292,9.6,19.4,73,0.00,,,0.00,Rainwise IP-100,2013-05-25 19:42:00,
2013-05-25 12:47:00,54.9,47.5,30.27,West,270,7.7,21.5,74,0.00,,,0.00,Rainwise IP-100,2013-05-25 19:47:00,
2013-05-25 12:50:00,54.9,47.5,30.27,WSW,247,3.3,21.5,74,0.00,,,0.00,Rainwise IP-100,2013-05-25 19:50:00,
2013-05-25 12:51:00,55.0,47.5,30.27,WNW,292,4.7,19.6,74,0.00,,,0.00,Rainwise IP-100,2013-05-25 19:51:00,
2013-05-25 12:53:00,55.0,47.5,30.26,SSW,202,4.9,15.4,74,0.00,,,0.00,Rainwise IP-100,2013-05-25 19:53:00,
2013-05-25 12:58:00,55.7,47.5,30.27,ESE,112,3.7,18.7,74,0.00,,,0.00,Rainwise IP-100,2013-05-25 19:58:00,
2013-05-25 13:03:00,55.6,47.5,30.26,SSE,157,4.7,19.6,73,0.00,,,0.00,Rainwise IP-100,2013-05-25 20:03:00,
2013-05-25 13:08:00,55.8,47.5,30.27,SE,135,2.1,16.1,73,0.00,,,0.00,Rainwise IP-100,2013-05-25 20:08:00,
2013-05-25 13:13:00,56.3,48.0,30.27,WNW,292,6.8,16.6,73,0.00,,,0.00,Rainwise IP-100,2013-05-25 20:13:00,
2013-05-25 13:18:00,56.1,47.5,30.27,SSE,157,2.1,19.1,73,0.00,,,0.00,Rainwise IP-100,2013-05-25 20:18:00,
2013-05-25 13:23:00,55.9,47.5,30.26,WNW,292,7.0,14.7,73,0.00,,,0.00,Rainwise IP-100,2013-05-25 20:23:00,
2013-05-25 13:28:00,55.9,47.5,30.26,SSE,157,6.1,21.2,73,0.00,,,0.00,Rainwise IP-100,2013-05-25 20:28:00,
2013-05-25 13:33:00,55.4,47.0,30.27,SSW,202,10.0,22.6,73,0.00,,,0.00,Rainwise IP-100,2013-05-25 20:33:00,
2013-05-25 13:38:00,55.2,47.5,30.26,WNW,292,5.6,16.1,74,0.00,,,0.00,Rainwise IP-100,2013-05-25 20:38:00,
2013-05-25 13:43:00,55.5,47.5,30.26,SSE,157,2.1,21.2,74,0.00,,,0.00,Rainwise IP-100,2013-05-25 20:43:00,
2013-05-25 13:48:00,55.5,47.5,30.27,SSW,202,11.9,16.6,73,0.00,,,0.00,Rainwise IP-100,2013-05-25 20:48:00,
2013-05-25 13:53:00,55.5,47.5,30.26,WNW,292,17.5,18.2,73,0.00,,,0.00,Rainwise IP-100,2013-05-25 20:53:00,
2013-05-25 13:58:00,55.4,47.5,30.26,West,270,16.1,25.2,74,0.00,,,0.00,Rainwise IP-100,2013-05-25 20:58:00,
2013-05-25 14:03:00,55.4,47.5,30.27,SW,225,9.1,17.5,74,0.00,,,0.00,Rainwise IP-100,2013-05-25 21:03:00,
2013-05-25 14:08:00,55.4,47.5,30.26,ESE,112,5.4,27.3,74,0.00,,,0.00,Rainwise IP-100,2013-05-25 21:08:00,
2013-05-25 14:13:00,55.1,47.5,30.26,NW,315,4.9,22.2,74,0.00,,,0.00,Rainwise IP-100,2013-05-25 21:13:00,
2013-05-25 14:18:00,54.9,47.5,30.26,SSW,202,8.9,19.4,74,0.00,,,0.00,Rainwise IP-100,2013-05-25 21:18:00,
2013-05-25 14:23:00,55.1,47.5,30.26,SSE,157,2.3,18.9,75,0.00,,,0.00,Rainwise IP-100,2013-05-25 21:23:00,
2013-05-25 14:28:00,55.1,47.5,30.27,West,270,16.1,27.3,75,0.00,,,0.00,Rainwise IP-100,2013-05-25 21:28:00,
2013-05-25 14:33:00,55.1,47.5,30.27,WNW,292,8.2,20.3,75,0.00,,,0.00,Rainwise IP-100,2013-05-25 21:33:00,
2013-05-25 14:38:00,55.5,47.5,30.26,West,270,6.8,19.1,74,0.00,,,0.00,Rainwise IP-100,2013-05-25 21:38:00,
2013-05-25 14:43:00,55.9,47.5,30.27,WNW,292,10.3,20.8,73,0.00,,,0.00,Rainwise IP-100,2013-05-25 21:43:00,
2013-05-25 14:48:00,55.7,47.5,30.27,West,270,6.8,18.2,73,0.00,,,0.00,Rainwise IP-100,2013-05-25 21:48:00,
2013-05-25 14:53:00,55.5,47.5,30.26,WSW,247,4.9,16.3,74,0.00,,,0.00,Rainwise IP-100,2013-05-25 21:53:00,
2013-05-25 14:58:00,55.6,47.5,30.26,NW,315,4.7,17.0,73,0.00,,,0.00,Rainwise IP-100,2013-05-25 21:58:00,
2013-05-25 15:03:00,55.7,47.5,30.26,WSW,247,4.9,18.7,73,0.00,,,0.00,Rainwise IP-100,2013-05-25 22:03:00,
2013-05-25 15:08:00,55.7,47.5,30.26,NNW,337,3.7,23.1,73,0.00,,,0.00,Rainwise IP-100,2013-05-25 22:08:00,
2013-05-25 15:13:00,55.7,47.5,30.26,WSW,247,15.9,22.6,73,0.00,,,0.00,Rainwise IP-100,2013-05-25 22:13:00,
2013-05-25 15:18:00,55.6,47.5,30.25,West,270,6.8,21.7,74,0.00,,,0.00,Rainwise IP-100,2013-05-25 22:18:00,
2013-05-25 15:23:00,55.1,47.5,30.25,South,180,12.4,24.0,74,0.00,,,0.00,Rainwise IP-100,2013-05-25 22:23:00,
2013-05-25 15:28:00,55.0,47.5,30.25,NW,315,9.6,26.3,75,0.00,,,0.00,Rainwise IP-100,2013-05-25 22:28:00,
2013-05-25 15:33:00,55.2,47.5,30.25,WSW,247,4.9,19.6,75,0.00,,,0.00,Rainwise IP-100,2013-05-25 22:33:00,
2013-05-25 15:38:00,55.4,47.5,30.25,WSW,247,5.1,20.5,75,0.00,,,0.00,Rainwise IP-100,2013-05-25 22:38:00,
2013-05-25 15:43:00,55.6,48.0,30.26,WNW,292,14.5,18.9,75,0.00,,,0.00,Rainwise IP-100,2013-05-25 22:43:00,
2013-05-25 15:48:00,55.3,47.5,30.26,WSW,247,10.0,26.8,75,0.00,,,0.00,Rainwise IP-100,2013-05-25 22:48:00,
2013-05-25 15:53:00,55.1,47.5,30.26,WSW,247,3.0,21.2,76,0.00,,,0.00,Rainwise IP-100,2013-05-25 22:53:00,
2013-05-25 15:58:00,54.8,48.0,30.25,West,270,10.3,22.6,77,0.00,,,0.00,Rainwise IP-100,2013-05-25 22:58:00,
2013-05-25 16:03:00,54.3,48.0,30.25,WSW,247,4.9,21.2,78,0.00,,,0.00,Rainwise IP-100,2013-05-25 23:03:00,
2013-05-25 16:08:00,54.7,48.0,30.26,WNW,292,6.8,29.1,78,0.00,,,0.00,Rainwise IP-100,2013-05-25 23:08:00,
2013-05-25 16:13:00,54.9,48.0,30.26,WNW,292,11.0,21.2,78,0.00,,,0.00,Rainwise IP-100,2013-05-25 23:13:00,
2013-05-25 16:18:00,54.8,48.0,30.26,WNW,292,10.5,17.7,78,0.00,,,0.00,Rainwise IP-100,2013-05-25 23:18:00,
2013-05-25 16:23:00,54.6,48.0,30.26,WSW,247,11.2,25.9,78,0.00,,,0.00,Rainwise IP-100,2013-05-25 23:23:00,
2013-05-25 16:28:00,54.5,48.0,30.26,WSW,247,7.0,19.8,79,0.00,,,0.00,Rainwise IP-100,2013-05-25 23:28:00,
2013-05-25 16:33:00,54.7,48.0,30.26,West,270,10.0,18.2,79,0.00,,,0.00,Rainwise IP-100,2013-05-25 23:33:00,
2013-05-25 16:38:00,54.6,48.0,30.26,West,270,8.4,17.7,79,0.00,,,0.00,Rainwise IP-100,2013-05-25 23:38:00,
2013-05-25 16:43:00,54.5,48.0,30.26,WSW,247,7.7,16.6,79,0.00,,,0.00,Rainwise IP-100,2013-05-25 23:43:00,
2013-05-25 16:48:00,54.3,48.0,30.25,SW,225,5.4,17.3,80,0.00,,,0.00,Rainwise IP-100,2013-05-25 23:48:00,
2013-05-25 16:53:00,54.4,48.0,30.25,NW,315,11.9,16.8,80,0.00,,,0.00,Rainwise IP-100,2013-05-25 23:53:00,
2013-05-25 16:58:00,54.3,48.0,30.25,WSW,247,6.3,22.9,80,0.00,,,0.00,Rainwise IP-100,2013-05-25 23:58:00,
2013-05-25 17:03:00,53.8,48.0,30.25,SSW,202,6.8,15.9,81,0.00,,,0.00,Rainwise IP-100,2013-05-26 00:03:00,
2013-05-25 17:08:00,53.5,48.0,30.26,West,270,3.3,21.0,82,0.00,,,0.00,Rainwise IP-100,2013-05-26 00:08:00,
2013-05-25 17:13:00,53.3,48.0,30.25,WSW,247,8.9,18.0,82,0.00,,,0.00,Rainwise IP-100,2013-05-26 00:13:00,
2013-05-25 17:18:00,53.2,47.5,30.25,WNW,292,14.9,21.7,83,0.00,,,0.00,Rainwise IP-100,2013-05-26 00:18:00,
2013-05-25 17:23:00,53.3,48.0,30.26,SW,225,6.3,22.9,83,0.00,,,0.00,Rainwise IP-100,2013-05-26 00:23:00,
2013-05-25 17:28:00,53.5,48.0,30.25,WNW,292,8.2,18.9,83,0.00,,,0.00,Rainwise IP-100,2013-05-26 00:28:00,
2013-05-25 17:33:00,53.6,48.0,30.25,WNW,292,4.2,18.2,83,0.00,,,0.00,Rainwise IP-100,2013-05-26 00:33:00,
2013-05-25 17:38:00,53.5,48.0,30.25,WNW,292,1.9,13.8,83,0.00,,,0.00,Rainwise IP-100,2013-05-26 00:38:00,
2013-05-25 17:43:00,53.6,48.0,30.26,WSW,247,6.5,15.4,83,0.00,,,0.00,Rainwise IP-100,2013-05-26 00:43:00,
2013-05-25 17:48:00,53.7,48.0,30.26,SW,225,2.3,14.5,83,0.00,,,0.00,Rainwise IP-100,2013-05-26 00:48:00,
2013-05-25 17:53:00,53.5,48.0,30.25,WNW,292,2.3,20.8,83,0.00,,,0.00,Rainwise IP-100,2013-05-26 00:53:00,
2013-05-25 17:58:00,53.0,48.0,30.25,WSW,247,5.4,19.1,84,0.00,,,0.00,Rainwise IP-100,2013-05-26 00:58:00,
2013-05-25 18:03:00,52.6,48.0,30.26,SW,225,2.6,15.4,85,0.00,,,0.00,Rainwise IP-100,2013-05-26 01:03:00,
2013-05-25 18:08:00,52.6,48.0,30.26,West,270,7.5,20.5,86,0.00,,,0.00,Rainwise IP-100,2013-05-26 01:08:00,
2013-05-25 18:13:00,52.8,48.0,30.26,WNW,292,10.5,17.0,86,0.00,,,0.00,Rainwise IP-100,2013-05-26 01:13:00,
2013-05-25 18:18:00,52.8,48.0,30.26,West,270,6.1,17.5,86,0.00,,,0.00,Rainwise IP-100,2013-05-26 01:18:00,
2013-05-25 18:23:00,52.7,48.0,30.26,SW,225,6.8,14.2,86,0.00,,,0.00,Rainwise IP-100,2013-05-26 01:23:00,
2013-05-25 18:28:00,52.7,48.0,30.26,WNW,292,7.5,14.9,86,0.00,,,0.00,Rainwise IP-100,2013-05-26 01:28:00,
2013-05-25 18:33:00,52.7,48.0,30.25,WSW,247,7.9,18.9,86,0.00,,,0.00,Rainwise IP-100,2013-05-26 01:33:00,
2013-05-25 18:38:00,52.7,48.0,30.26,WNW,292,2.3,15.6,86,0.00,,,0.00,Rainwise IP-100,2013-05-26 01:38:00,
2013-05-25 18:43:00,52.8,48.0,30.25,WSW,247,4.2,15.6,86,0.00,,,0.00,Rainwise IP-100,2013-05-26 01:43:00,
2013-05-25 18:48:00,52.7,48.0,30.25,WSW,247,3.0,18.7,86,0.00,,,0.00,Rainwise IP-100,2013-05-26 01:48:00,
2013-05-25 18:53:00,52.6,48.0,30.25,WNW,292,7.9,16.3,86,0.00,,,0.00,Rainwise IP-100,2013-05-26 01:53:00,
2013-05-25 18:58:00,52.5,48.0,30.25,WNW,292,8.6,18.9,86,0.00,,,0.00,Rainwise IP-100,2013-05-26 01:58:00,
2013-05-25 19:03:00,52.4,48.0,30.25,WNW,292,9.1,21.9,87,0.00,,,0.00,Rainwise IP-100,2013-05-26 02:03:00,
2013-05-25 19:08:00,52.3,48.0,30.25,West,270,7.5,21.0,87,0.00,,,0.00,Rainwise IP-100,2013-05-26 02:08:00,
2013-05-25 19:13:00,52.0,48.0,30.25,WNW,292,4.2,19.1,88,0.00,,,0.00,Rainwise IP-100,2013-05-26 02:13:00,
2013-05-25 19:18:00,52.0,48.0,30.25,West,270,20.3,20.3,88,0.00,,,0.00,Rainwise IP-100,2013-05-26 02:18:00,
2013-05-25 19:23:00,51.9,49.0,30.25,SSW,202,6.3,20.3,89,0.00,,,0.00,Rainwise IP-100,2013-05-26 02:23:00,
2013-05-25 19:28:00,51.8,49.0,30.25,West,270,10.0,16.1,89,0.00,,,0.00,Rainwise IP-100,2013-05-26 02:28:00,
2013-05-25 19:33:00,51.8,49.0,30.25,WNW,292,4.2,23.8,89,0.00,,,0.00,Rainwise IP-100,2013-05-26 02:33:00,
2013-05-25 19:38:00,51.6,49.0,30.25,WSW,247,4.9,21.7,90,0.00,,,0.00,Rainwise IP-100,2013-05-26 02:38:00,
2013-05-25 19:43:00,51.5,49.0,30.25,WSW,247,13.8,20.3,90,0.00,,,0.00,Rainwise IP-100,2013-05-26 02:43:00,
2013-05-25 19:48:00,51.4,49.0,30.24,WSW,247,8.2,20.8,91,0.00,,,0.00,Rainwise IP-100,2013-05-26 02:48:00,
2013-05-25 19:53:00,51.3,49.0,30.25,SW,225,4.4,25.2,91,0.00,,,0.00,Rainwise IP-100,2013-05-26 02:53:00,
2013-05-25 19:58:00,51.2,49.0,30.25,WSW,247,2.1,25.6,91,0.00,,,0.00,Rainwise IP-100,2013-05-26 02:58:00,
2013-05-25 20:03:00,51.0,49.0,30.25,West,270,15.6,23.8,92,0.00,,,0.00,Rainwise IP-100,2013-05-26 03:03:00,
2013-05-25 20:08:00,50.9,49.0,30.25,West,270,20.1,26.1,92,0.00,,,0.00,Rainwise IP-100,2013-05-26 03:08:00,
2013-05-25 20:13:00,50.8,49.0,30.25,West,270,12.8,25.9,93,0.00,,,0.00,Rainwise IP-100,2013-05-26 03:13:00,
2013-05-25 20:18:00,50.7,48.0,30.25,WNW,292,7.5,22.9,93,0.00,,,0.00,Rainwise IP-100,2013-05-26 03:18:00,
2013-05-25 20:23:00,50.6,48.0,30.25,WSW,247,10.5,25.9,93,0.00,,,0.00,Rainwise IP-100,2013-05-26 03:23:00,
2013-05-25 20:28:00,50.4,49.0,30.24,WNW,292,11.7,24.5,94,0.00,,,0.00,Rainwise IP-100,2013-05-26 03:28:00,
2013-05-25 20:33:00,50.3,49.0,30.25,West,270,13.3,25.2,94,0.00,,,0.00,Rainwise IP-100,2013-05-26 03:33:00,
2013-05-25 20:38:00,50.2,48.0,30.26,SSW,202,10.7,20.5,95,0.00,,,0.00,Rainwise IP-100,2013-05-26 03:38:00,
2013-05-25 20:43:00,50.1,48.0,30.25,WSW,247,1.9,22.6,95,0.00,,,0.00,Rainwise IP-100,2013-05-26 03:43:00,
2013-05-25 20:48:00,50.0,48.0,30.26,WNW,292,22.9,22.9,95,0.00,,,0.00,Rainwise IP-100,2013-05-26 03:48:00,
2013-05-25 20:53:00,50.0,48.0,30.26,WSW,247,6.5,22.9,95,0.00,,,0.00,Rainwise IP-100,2013-05-26 03:53:00,
2013-05-25 20:58:00,50.0,49.0,30.26,WSW,247,4.7,19.6,96,0.00,,,0.00,Rainwise IP-100,2013-05-26 03:58:00,
2013-05-25 21:01:00,50.0,49.0,30.26,WNW,292,10.7,23.1,96,0.00,,,0.00,Rainwise IP-100,2013-05-26 04:01:00,
2013-05-25 21:06:00,49.9,49.0,30.26,WNW,292,11.9,24.2,96,0.00,,,0.00,Rainwise IP-100,2013-05-26 04:06:00,
2013-05-25 21:11:00,49.9,49.0,30.27,WNW,292,10.7,23.3,96,0.00,,,0.00,Rainwise IP-100,2013-05-26 04:11:00,
2013-05-25 21:16:00,50.0,49.0,30.27,WNW,292,11.4,19.4,96,0.00,,,0.00,Rainwise IP-100,2013-05-26 04:16:00,
2013-05-25 21:21:00,50.0,49.0,30.26,WSW,247,8.2,22.9,96,0.00,,,0.00,Rainwise IP-100,2013-05-26 04:21:00,
2013-05-25 21:26:00,50.1,49.0,30.27,WNW,292,10.7,22.6,96,0.00,,,0.00,Rainwise IP-100,2013-05-26 04:26:00,
2013-05-25 21:31:00,50.2,49.0,30.27,WSW,247,3.5,17.0,96,0.00,,,0.00,Rainwise IP-100,2013-05-26 04:31:00,
2013-05-25 21:36:00,50.3,50.0,30.27,WNW,292,9.1,20.1,96,0.00,,,0.00,Rainwise IP-100,2013-05-26 04:36:00,
2013-05-25 21:41:00,50.3,50.0,30.28,West,270,7.2,15.9,96,0.00,,,0.00,Rainwise IP-100,2013-05-26 04:41:00,
2013-05-25 21:46:00,50.3,49.0,30.27,WNW,292,11.2,23.8,95,0.00,,,0.00,Rainwise IP-100,2013-05-26 04:46:00,
2013-05-25 21:51:00,50.4,49.0,30.28,West,270,7.7,19.8,95,0.00,,,0.00,Rainwise IP-100,2013-05-26 04:51:00,
2013-05-25 21:56:00,50.5,49.0,30.28,WNW,292,11.9,23.1,95,0.00,,,0.00,Rainwise IP-100,2013-05-26 04:56:00,
2013-05-25 22:01:00,50.5,49.0,30.28,SW,225,7.2,15.2,95,0.00,,,0.00,Rainwise IP-100,2013-05-26 05:01:00,
2013-05-25 22:06:00,50.5,49.0,30.28,WNW,292,5.1,18.9,95,0.00,,,0.00,Rainwise IP-100,2013-05-26 05:06:00,
2013-05-25 22:11:00,50.5,49.0,30.29,WNW,292,6.8,16.1,95,0.00,,,0.00,Rainwise IP-100,2013-05-26 05:11:00,
2013-05-25 22:16:00,50.5,49.0,30.29,WNW,292,16.3,17.3,95,0.00,,,0.00,Rainwise IP-100,2013-05-26 05:16:00,
2013-05-25 22:21:00,50.5,49.0,30.29,WNW,292,14.7,19.1,95,0.00,,,0.00,Rainwise IP-100,2013-05-26 05:21:00,
2013-05-25 22:26:00,50.5,49.0,30.28,WNW,292,6.5,19.8,95,0.00,,,0.00,Rainwise IP-100,2013-05-26 05:26:00,
2013-05-25 22:31:00,50.4,49.0,30.28,West,270,14.7,17.5,95,0.00,,,0.00,Rainwise IP-100,2013-05-26 05:31:00,
2013-05-25 22:36:00,50.4,49.0,30.29,SW,225,6.3,20.3,95,0.00,,,0.00,Rainwise IP-100,2013-05-26 05:36:00,
2013-05-25 22:41:00,50.3,49.0,30.29,West,270,7.2,22.4,95,0.00,,,0.00,Rainwise IP-100,2013-05-26 05:41:00,
2013-05-25 22:46:00,50.3,49.0,30.29,West,270,6.8,17.7,95,0.00,,,0.00,Rainwise IP-100,2013-05-26 05:46:00,
2013-05-25 22:51:00,50.3,49.0,30.29,SSW,202,3.5,17.3,95,0.00,,,0.00,Rainwise IP-100,2013-05-26 05:51:00,
2013-05-25 22:56:00,50.3,49.0,30.30,WSW,247,5.4,17.7,95,0.00,,,0.00,Rainwise IP-100,2013-05-26 05:56:00,
2013-05-25 23:01:00,50.3,49.0,30.30,WNW,292,17.3,17.3,95,0.00,,,0.00,Rainwise IP-100,2013-05-26 06:01:00,
2013-05-25 23:06:00,50.2,48.0,30.30,WNW,292,9.3,20.1,95,0.00,,,0.00,Rainwise IP-100,2013-05-26 06:06:00,
2013-05-25 23:11:00,50.2,48.0,30.29,West,270,1.4,17.5,95,0.00,,,0.00,Rainwise IP-100,2013-05-26 06:11:00,
2013-05-25 23:16:00,50.2,49.0,30.29,WNW,292,4.2,20.3,96,0.00,,,0.00,Rainwise IP-100,2013-05-26 06:16:00,
2013-05-25 23:21:00,50.2,49.0,30.29,North,360,1.9,16.8,96,0.00,,,0.00,Rainwise IP-100,2013-05-26 06:21:00,
2013-05-25 23:26:00,50.2,49.0,30.29,WSW,247,3.0,20.1,96,0.00,,,0.00,Rainwise IP-100,2013-05-26 06:26:00,
2013-05-25 23:31:00,50.1,49.0,30.30,WNW,292,10.7,21.0,96,0.00,,,0.00,Rainwise IP-100,2013-05-26 06:31:00,
2013-05-25 23:36:00,50.0,49.0,30.29,SW,225,5.6,18.2,96,0.00,,,0.00,Rainwise IP-100,2013-05-26 06:36:00,
2013-05-25 23:41:00,50.0,49.0,30.29,West,270,6.1,16.3,96,0.00,,,0.00,Rainwise IP-100,2013-05-26 06:41:00,
2013-05-25 23:46:00,50.0,49.0,30.30,NNW,337,3.5,17.7,96,0.00,,,0.00,Rainwise IP-100,2013-05-26 06:46:00,
2013-05-25 23:51:00,50.0,49.0,30.30,West,270,12.1,21.2,96,0.00,,,0.00,Rainwise IP-100,2013-05-26 06:51:00,
2013-05-25 23:56:00,50.0,49.0,30.29,West,270,7.5,16.8,97,0.00,,,0.00,Rainwise IP-100,2013-05-26 06:56:00,